Glen Richey, PA (16837)

12:06 PM EST on February 12, 2016 (GMT -0500)
Twinoaks | | Change Station
CLOSE
Current Station
Personal Weather Station
Location: Curwensville, PA
Elevation: 1493 ft
Nearby Weather Stations
Active Advisory: Wind Chill Advisory Active Notice: Public Information Statement

Elev 1493 ft 40.99 °N, 78.53 °W | Updated 2 minutes ago

Overcast
Overcast
17.6 °F
Feels Like 9 °F
N
5.8
Wind Variable Wind from West

Today
High -- | Low -- °F
--% Chance of Precip.
Yesterday
High -- | Low -- °F
Precip. -- in
Pressure 30.12 in
Visibility 10.0 miles
Clouds Few 2700 ft
Scattered Clouds 3400 ft
Overcast 9500 ft
Windchill 9 °F
Dew Point 6 °F
Humidity 60%
Rainfall 0.00 in
Snow Depth Not available.
7:12 AM 5:44 PM
Waxing Crescent, 22% visible
METAR KFIG 121654Z AUTO 22008KT 10SM FEW027 SCT034 OVC095 M09/M15 A3003 RMK AO2 SLP199 T10891150
Pressure 30.12 in
Visibility 10.0 miles
Clouds Few 2700 ft
Scattered Clouds 3400 ft
Overcast 9500 ft
Windchill 9 °F
Dew Point 6 °F
Humidity 60%
Rainfall 0.00 in
Snow Depth Not available.
7:12 AM 5:44 PM
Waxing Crescent, 22% visible
METAR KFIG 121654Z AUTO 22008KT 10SM FEW027 SCT034 OVC095 M09/M15 A3003 RMK AO2 SLP199 T10891150

10-Day Weather Forecast

Almanac

Astronomy

Feb. 12, 2016 Rise Set
Actual Time
Civil Twilight
Nautical Twilight
Astronomical Twilight
Moon
Length of Visible Light
Length of Day
Tomorrow will be .
, % of the Moon is Illuminated

Today's Extremes

State Highs State Lows

Community

WunderPhotos

Upload Photos

1,892,353 photos uploaded!

WunderBlog® & News

Nearby

Air Quality

  Air Quality AQ Index Pollutant
Not available.

Snow Depth

Station Depth Elevation

Earthquake Activity

City Distance Mag. Time & Date
Minimum magnitude displayed is 2.5.

Coastal Water Temperatures

Place Temperature

Stations

Nearby Weather Stations

Station Location Temp. Windchill Dew Point Humidity Wind Precip. Elev Updated Type
                   

Watches & Warnings

Wind Chill Advisory
Issued: 4:35 AM EST Feb. 12, 2016 – National Weather Service

... Wind Chill Advisory in effect from 4 am Saturday to 11 am EST
Sunday...

The National Weather Service in State College has issued a Wind
Chill Advisory... which is in effect from 4 am Saturday to 11 am
EST Sunday.

* Locations... the Allegheny plateau.

* Hazard types... dangerous wind chills.

* Wind chills... 15 to 20 below zero.

* Timing... Saturday through Sunday morning.

* Impacts... frostbite and hypothermia are possible if precautions
are not taken.

Precautionary/preparedness actions...

Precautionary/preparedness actions...

If you will be outdoors... dress in layers and wear a hat and
gloves. Young children... the elderly and the homeless are
especially vulnerable to the cold. Appropriate action should be
taken to ensure pets have adequate protection from the cold
temperatures.